RYR88DL LIRP-LFOB

Flight info

Callsign RYR88DL
Flight time 1h 28m
Altitude 38000
Route BEROK DCT BOTAL DCT PUNSA DCT GILIR DCT JAVVU DCT TINIL
Aircraft B738/M-SDE2E3FGHIRWXY/LB1

Departure

Time 2026-05-09 13:05
Airport Pisa International Airport (LIRP)

Arrival

Time 2026-05-09 14:33
Airport Beauvais-Tillé airport (LFOB)
Time Latitude Longitude Altitude Speed Heading
2026-05-09 12:21 43.69747 10.40032 10 ft 0 kts
2026-05-09 12:51 43.69741 10.40030 10 ft 4 kts
2026-05-09 12:51 43.69715 10.40033 10 ft 4 kts 336°
2026-05-09 12:52 43.69695 10.40053 11 ft 4 kts 301°
2026-05-09 12:52 43.69689 10.40082 13 ft 2 kts 246°
2026-05-09 12:52 43.69690 10.40084 13 ft 1 kts 244°
2026-05-09 12:57 43.69686 10.40071 10 ft 3 kts 249°
2026-05-09 12:58 43.69683 10.40018 10 ft 7 kts 277°
2026-05-09 12:58 43.69671 10.39955 10 ft 8 kts 211°
2026-05-09 12:58 43.69619 10.39938 10 ft 8 kts 189°
2026-05-09 12:58 43.69562 10.39925 10 ft 9 kts 192°
2026-05-09 12:59 43.69498 10.39910 10 ft 10 kts 188°
2026-05-09 12:59 43.69426 10.39894 10 ft 11 kts 187°
2026-05-09 12:59 43.69345 10.39898 10 ft 12 kts 173°
2026-05-09 12:59 43.69256 10.39914 10 ft 14 kts 173°
2026-05-09 13:00 43.69160 10.39899 11 ft 15 kts 205°
2026-05-09 13:00 43.69071 10.39812 7 ft 17 kts 217°
2026-05-09 13:00 43.68975 10.39712 8 ft 17 kts 217°
2026-05-09 13:00 43.68873 10.39609 6 ft 20 kts 217°
2026-05-09 13:01 43.68757 10.39487 7 ft 22 kts 216°
2026-05-09 13:01 43.68623 10.39348 7 ft 24 kts 216°
2026-05-09 13:01 43.68492 10.39213 7 ft 23 kts 217°
2026-05-09 13:01 43.68367 10.39082 7 ft 22 kts 216°
2026-05-09 13:02 43.68243 10.38954 5 ft 23 kts 217°
2026-05-09 13:02 43.68113 10.38815 5 ft 24 kts 221°
2026-05-09 13:02 43.67980 10.38684 7 ft 23 kts 216°
2026-05-09 13:02 43.67855 10.38555 8 ft 22 kts 217°
2026-05-09 13:03 43.67733 10.38428 9 ft 22 kts 217°
2026-05-09 13:03 43.67615 10.38305 7 ft 21 kts 217°
2026-05-09 13:03 43.67498 10.38190 10 ft 20 kts 214°
2026-05-09 13:03 43.67413 10.38110 10 ft 3 kts 187°
2026-05-09 13:04 43.67391 10.38131 10 ft 6 kts 137°
2026-05-09 13:04 43.67344 10.38210 10 ft 15 kts 128°
2026-05-09 13:04 43.67321 10.38320 10 ft 12 kts 58°
2026-05-09 13:04 43.67416 10.38432 9 ft 31 kts 39°
2026-05-09 13:05 43.67767 10.38789 8 ft 97 kts 36°
2026-05-09 13:05 43.68479 10.39525 8 ft 156 kts 36°
2026-05-09 13:05 43.69423 10.40516 329 ft 174 kts 37°
2026-05-09 13:05 43.70366 10.41498 1031 ft 175 kts 36°
2026-05-09 13:06 43.71375 10.42472 1606 ft 178 kts 29°
2026-05-09 13:06 43.72579 10.43153 2146 ft 198 kts 10°
2026-05-09 13:06 43.74008 10.43304 2744 ft 214 kts 356°
2026-05-09 13:06 43.75519 10.42907 3274 ft 228 kts 340°
2026-05-09 13:07 43.77036 10.42077 3889 ft 242 kts 337°
2026-05-09 13:07 43.78649 10.41167 4382 ft 265 kts 338°
2026-05-09 13:07 43.80395 10.40212 5206 ft 271 kts 339°
2026-05-09 13:07 43.82162 10.39268 6171 ft 275 kts 339°
2026-05-09 13:08 43.83993 10.38303 7023 ft 281 kts 339°
2026-05-09 13:08 43.85797 10.37358 7931 ft 283 kts 339°
2026-05-09 13:08 43.87671 10.36378 8783 ft 287 kts 339°
2026-05-09 13:08 43.89576 10.35584 9687 ft 291 kts 351°
2026-05-09 13:09 43.91605 10.35369 10521 ft 295 kts 356°
2026-05-09 13:09 43.93714 10.35117 10933 ft 314 kts 353°
2026-05-09 13:09 43.95971 10.34773 11082 ft 339 kts 352°
2026-05-09 13:09 43.98312 10.34409 11100 ft 341 kts 352°
2026-05-09 13:10 44.00716 10.34236 11635 ft 348 kts 360°
2026-05-09 13:10 44.03132 10.34403 12592 ft 349 kts
2026-05-09 13:10 44.05568 10.34611 13443 ft 352 kts
2026-05-09 13:10 44.08024 10.34778 14228 ft 355 kts 360°
2026-05-09 13:11 44.10508 10.34907 14918 ft 359 kts 359°
2026-05-09 13:11 44.13015 10.35018 15638 ft 362 kts 359°
2026-05-09 13:11 44.15534 10.34930 16375 ft 361 kts 346°
2026-05-09 13:11 44.17809 10.33606 17123 ft 354 kts 322°
2026-05-09 13:12 44.19698 10.31437 17941 ft 353 kts 316°
2026-05-09 13:12 44.21538 10.29144 18598 ft 357 kts 316°
2026-05-09 13:12 44.23391 10.26819 19140 ft 360 kts 315°
2026-05-09 13:12 44.25251 10.24455 19788 ft 363 kts 315°
2026-05-09 13:13 44.27127 10.22082 20439 ft 365 kts 314°
2026-05-09 13:13 44.29021 10.19695 21056 ft 369 kts 315°
2026-05-09 13:13 44.30943 10.17281 21590 ft 374 kts 315°
2026-05-09 13:13 44.32886 10.14844 22212 ft 376 kts 314°
2026-05-09 13:14 44.34839 10.12398 22825 ft 378 kts 314°
2026-05-09 13:14 44.36808 10.09933 23343 ft 383 kts 314°
2026-05-09 13:16 44.50971 9.92138 26524 ft 400 kts 313°
2026-05-09 13:16 44.53050 9.89517 26943 ft 403 kts 313°
2026-05-09 13:16 44.55138 9.86881 27377 ft 405 kts 313°
2026-05-09 13:16 44.57234 9.84232 27818 ft 407 kts 313°
2026-05-09 13:17 44.59343 9.81562 28236 ft 410 kts 313°
2026-05-09 13:17 44.61467 9.78872 28581 ft 414 kts 313°
2026-05-09 13:17 44.63612 9.76152 28956 ft 416 kts 313°
2026-05-09 13:17 44.65762 9.73423 29359 ft 418 kts 313°
2026-05-09 13:18 44.67922 9.70681 29738 ft 420 kts 313°
2026-05-09 13:18 44.70094 9.67919 30086 ft 422 kts 313°
2026-05-09 13:18 44.72276 9.65140 30357 ft 425 kts 312°
2026-05-09 13:18 44.74473 9.62340 30641 ft 427 kts 312°
2026-05-09 13:19 44.76672 9.59535 31018 ft 426 kts 312°
2026-05-09 13:19 44.78859 9.56748 31444 ft 423 kts 311°
2026-05-09 13:19 44.81026 9.53983 31997 ft 418 kts 311°
2026-05-09 13:19 44.83172 9.51238 32414 ft 417 kts 311°
2026-05-09 13:20 44.85320 9.48483 32649 ft 419 kts 310°
2026-05-09 13:20 44.87474 9.45716 32971 ft 419 kts 310°
2026-05-09 13:20 44.88931 9.43845 33241 ft 418 kts 310°
2026-05-09 13:20 44.91073 9.41095 33709 ft 415 kts 310°
2026-05-09 13:21 44.93199 9.38364 34172 ft 412 kts 309°
2026-05-09 13:21 44.95313 9.35643 34487 ft 411 kts 309°
2026-05-09 13:21 44.97426 9.32917 34730 ft 412 kts 309°
2026-05-09 13:21 44.99542 9.30184 34998 ft 412 kts 310°
2026-05-09 13:22 45.02335 9.26577 35481 ft 409 kts 310°
2026-05-09 13:22 45.03719 9.24788 35740 ft 407 kts 310°
2026-05-09 13:22 45.05804 9.22090 36023 ft 407 kts 310°
2026-05-09 13:23 45.14247 9.11193 36984 ft 410 kts 312°
2026-05-09 13:23 45.16443 9.08616 37234 ft 411 kts 314°
2026-05-09 13:24 45.18680 9.06086 37446 ft 412 kts 314°
2026-05-09 13:24 45.20933 9.03564 37654 ft 413 kts 314°
2026-05-09 13:24 45.23182 9.01044 37956 ft 411 kts 315°
2026-05-09 13:24 45.25427 8.98515 38061 ft 414 kts 314°
2026-05-09 13:25 45.29931 8.93396 38039 ft 415 kts 314°
2026-05-09 13:26 45.36628 8.85734 38059 ft 411 kts 314°
2026-05-09 13:26 45.41077 8.80622 38049 ft 411 kts 314°
2026-05-09 13:27 45.45528 8.75496 38088 ft 412 kts 315°
2026-05-09 13:27 45.49984 8.70355 38089 ft 412 kts 315°
2026-05-09 13:28 45.54440 8.65204 38074 ft 412 kts 315°
2026-05-09 13:28 45.58894 8.60044 38079 ft 413 kts 315°
2026-05-09 13:29 45.63354 8.54866 38075 ft 413 kts 314°
2026-05-09 13:29 45.67785 8.49711 38084 ft 414 kts 315°
2026-05-09 13:30 45.72255 8.44500 38075 ft 415 kts 315°
2026-05-09 13:30 45.76729 8.39273 38064 ft 415 kts 315°
2026-05-09 13:31 45.81198 8.34041 38081 ft 415 kts 315°
2026-05-09 13:31 45.85663 8.28803 38083 ft 415 kts 315°
2026-05-09 13:32 45.90138 8.23540 38093 ft 416 kts 315°
2026-05-09 13:32 45.96861 8.15612 38088 ft 418 kts 315°
2026-05-09 13:33 46.01355 8.10299 38093 ft 418 kts 315°
2026-05-09 13:33 46.05845 8.04980 38087 ft 418 kts 315°
2026-05-09 13:34 46.09942 7.99188 38102 ft 408 kts 303°
2026-05-09 13:34 46.13487 7.92783 38082 ft 410 kts 304°
2026-05-09 13:35 46.17081 7.86362 38068 ft 413 kts 304°
2026-05-09 13:35 46.20695 7.79936 38081 ft 412 kts 303°
2026-05-09 13:36 46.24300 7.73480 38073 ft 413 kts 304°
2026-05-09 13:36 46.27845 7.67012 38092 ft 404 kts 301°
2026-05-09 13:37 46.31484 7.60750 38091 ft 407 kts 306°
2026-05-09 13:37 46.35099 7.54447 38055 ft 407 kts 303°
2026-05-09 13:38 46.38614 7.48091 38018 ft 407 kts 303°
2026-05-09 13:38 46.42159 7.41681 38045 ft 409 kts 303°
2026-05-09 13:39 46.45726 7.35245 38044 ft 411 kts 304°
2026-05-09 13:39 46.49316 7.28772 38043 ft 413 kts 304°
2026-05-09 13:40 46.52920 7.22264 38036 ft 415 kts 304°
2026-05-09 13:40 46.56539 7.15715 38036 ft 417 kts 303°
2026-05-09 13:41 46.60178 7.09116 38023 ft 418 kts 303°
2026-05-09 13:41 46.63801 7.02518 38024 ft 416 kts 303°
2026-05-09 13:42 46.67402 6.95949 38028 ft 414 kts 303°
2026-05-09 13:42 46.70986 6.89396 38024 ft 413 kts 303°
2026-05-09 13:43 46.74554 6.82857 38019 ft 411 kts 303°
2026-05-09 13:43 46.78104 6.76336 38043 ft 411 kts 303°
2026-05-09 13:44 46.81655 6.69797 38032 ft 411 kts 303°
2026-05-09 13:44 46.85203 6.63247 38032 ft 412 kts 303°
2026-05-09 13:45 46.88759 6.56666 38028 ft 413 kts 303°
2026-05-09 13:45 46.92324 6.50055 38035 ft 415 kts 303°
2026-05-09 13:46 46.95905 6.43398 38034 ft 417 kts 303°
2026-05-09 13:46 46.99476 6.36744 38023 ft 419 kts 303°
2026-05-09 13:47 47.03082 6.30009 38022 ft 421 kts 303°
2026-05-09 13:47 47.06716 6.23252 38001 ft 424 kts 305°
2026-05-09 13:48 47.10799 6.16925 38014 ft 429 kts 310°
2026-05-09 13:48 47.15039 6.10733 37612 ft 434 kts 309°
2026-05-09 13:49 47.17154 6.07598 37329 ft 428 kts 309°
2026-05-09 13:49 47.19230 6.04492 36896 ft 424 kts 308°
2026-05-09 13:49 47.21273 6.01411 36549 ft 418 kts 308°
2026-05-09 13:49 47.23290 5.98353 36195 ft 414 kts 308°
2026-05-09 13:50 47.25280 5.95328 35818 ft 410 kts 308°
2026-05-09 13:50 47.27253 5.92327 35438 ft 406 kts 308°
2026-05-09 13:50 47.29211 5.89348 35071 ft 403 kts 308°
2026-05-09 13:50 47.31152 5.86395 34710 ft 399 kts 308°
2026-05-09 13:51 47.32995 5.83390 34345 ft 391 kts 301°
2026-05-09 13:51 47.34435 5.80057 34035 ft 380 kts 291°
2026-05-09 13:51 47.35612 5.76597 33640 ft 377 kts 291°
2026-05-09 13:51 47.36799 5.73174 33284 ft 373 kts 292°
2026-05-09 13:52 47.37985 5.69790 32921 ft 370 kts 292°
2026-05-09 13:52 47.39164 5.66441 32607 ft 365 kts 292°
2026-05-09 13:52 47.40330 5.63131 32261 ft 362 kts 292°
2026-05-09 13:52 47.41486 5.59846 31936 ft 359 kts 292°
2026-05-09 13:53 47.42629 5.56595 31633 ft 355 kts 293°
2026-05-09 13:53 47.43761 5.53370 31284 ft 353 kts 293°
2026-05-09 13:53 47.44883 5.50167 30978 ft 349 kts 293°
2026-05-09 13:53 47.45995 5.46988 30660 ft 347 kts 293°
2026-05-09 13:54 47.47100 5.43830 30365 ft 344 kts 294°
2026-05-09 13:54 47.48194 5.40699 30039 ft 342 kts 293°
2026-05-09 13:54 47.49279 5.37588 29687 ft 339 kts 293°
2026-05-09 13:54 47.50352 5.34507 29372 ft 336 kts 293°
2026-05-09 13:55 47.51416 5.31448 29048 ft 332 kts 293°
2026-05-09 13:55 47.52468 5.28419 28729 ft 330 kts 293°
2026-05-09 13:55 47.53498 5.25452 28418 ft 327 kts 293°
2026-05-09 13:55 47.54545 5.22430 28094 ft 325 kts 293°
2026-05-09 13:56 47.55575 5.19458 27767 ft 323 kts 293°
2026-05-09 13:56 47.56597 5.16507 27450 ft 321 kts 293°
2026-05-09 13:56 47.57611 5.13571 27125 ft 320 kts 293°
2026-05-09 13:56 47.58626 5.10697 26837 ft 319 kts 297°
2026-05-09 13:57 47.60101 5.08222 26579 ft 324 kts 316°
2026-05-09 13:57 47.61850 5.06125 26224 ft 323 kts 314°
2026-05-09 13:57 47.63556 5.03963 25939 ft 322 kts 315°
2026-05-09 13:57 47.65293 5.01800 25630 ft 332 kts 315°
2026-05-09 13:58 47.67092 4.99559 25301 ft 342 kts 315°
2026-05-09 13:58 47.68915 4.97286 24932 ft 342 kts 315°
2026-05-09 13:58 47.70726 4.95018 24595 ft 340 kts 315°
2026-05-09 13:58 47.72526 4.92756 24249 ft 339 kts 315°
2026-05-09 13:59 47.74321 4.90495 23888 ft 338 kts 315°
2026-05-09 13:59 47.76110 4.88239 23505 ft 337 kts 315°
2026-05-09 13:59 47.77896 4.85984 23076 ft 336 kts 315°
2026-05-09 13:59 47.79673 4.83740 22686 ft 335 kts 315°
2026-05-09 14:00 47.81445 4.81500 22300 ft 333 kts 316°
2026-05-09 14:00 47.82041 4.80745 22176 ft 333 kts 316°
2026-05-09 14:00 47.84955 4.77056 21579 ft 330 kts 316°
2026-05-09 14:00 47.86698 4.74846 21222 ft 328 kts 316°
2026-05-09 14:01 47.88433 4.72644 20863 ft 327 kts 316°
2026-05-09 14:01 47.90157 4.70453 20509 ft 325 kts 316°
2026-05-09 14:01 47.91878 4.68265 20174 ft 324 kts 316°
2026-05-09 14:01 47.93593 4.66082 19821 ft 324 kts 316°
2026-05-09 14:02 47.95304 4.63902 19463 ft 323 kts 316°
2026-05-09 14:02 47.97011 4.61726 19113 ft 323 kts 316°
2026-05-09 14:02 47.98716 4.59549 18769 ft 322 kts 316°
2026-05-09 14:02 48.00418 4.57375 18409 ft 322 kts 316°
2026-05-09 14:03 48.02121 4.55198 18026 ft 322 kts 316°
2026-05-09 14:03 48.03823 4.53019 17642 ft 322 kts 316°
2026-05-09 14:03 48.05516 4.50850 17272 ft 321 kts 316°
2026-05-09 14:03 48.07207 4.48682 16917 ft 319 kts 316°
2026-05-09 14:04 48.08889 4.46525 16568 ft 318 kts 316°
2026-05-09 14:04 48.10547 4.44396 16223 ft 318 kts 316°
2026-05-09 14:04 48.12223 4.42242 15872 ft 317 kts 316°
2026-05-09 14:04 48.13923 4.40147 15531 ft 318 kts 323°
2026-05-09 14:05 48.15830 4.38465 15199 ft 319 kts 330°
2026-05-09 14:05 48.17811 4.36965 14850 ft 319 kts 331°
2026-05-09 14:05 48.19794 4.35482 14505 ft 319 kts 331°
2026-05-09 14:05 48.21772 4.33973 14156 ft 319 kts 330°
2026-05-09 14:06 48.23738 4.32446 13813 ft 318 kts 330°
2026-05-09 14:06 48.25698 4.30901 13431 ft 318 kts 330°
2026-05-09 14:06 48.27655 4.29346 13046 ft 317 kts 330°
2026-05-09 14:06 48.29601 4.27792 12698 ft 317 kts 330°
2026-05-09 14:07 48.31543 4.26238 12329 ft 316 kts 330°
2026-05-09 14:07 48.33479 4.24687 11990 ft 315 kts 330°
2026-05-09 14:07 48.35392 4.23139 11735 ft 311 kts 330°
2026-05-09 14:07 48.37280 4.21592 11481 ft 307 kts 330°
2026-05-09 14:08 48.39143 4.20063 11235 ft 303 kts 330°
2026-05-09 14:08 48.40980 4.18554 11000 ft 299 kts 330°
2026-05-09 14:08 48.42800 4.17056 10772 ft 297 kts 330°
2026-05-09 14:08 48.44601 4.15572 10528 ft 294 kts 330°
2026-05-09 14:09 48.46390 4.14098 10298 ft 292 kts 330°
2026-05-09 14:09 48.48168 4.12634 10073 ft 290 kts 330°
2026-05-09 14:09 48.49933 4.11178 9838 ft 289 kts 330°
2026-05-09 14:09 48.51098 4.10217 9672 ft 287 kts 330°
2026-05-09 14:10 48.54579 4.07345 9219 ft 284 kts 330°
2026-05-09 14:10 48.56304 4.05919 8982 ft 282 kts 330°
2026-05-09 14:10 48.58017 4.04501 8764 ft 280 kts 330°
2026-05-09 14:11 48.59722 4.03090 8527 ft 279 kts 330°
2026-05-09 14:11 48.61418 4.01680 8328 ft 278 kts 330°
2026-05-09 14:11 48.63112 4.00272 8087 ft 278 kts 330°
2026-05-09 14:11 48.64798 3.98869 7889 ft 276 kts 330°
2026-05-09 14:12 48.66478 3.97467 7652 ft 275 kts 330°
2026-05-09 14:12 48.68159 3.96089 7426 ft 275 kts 330°
2026-05-09 14:12 48.69828 3.94699 7221 ft 273 kts 331°
2026-05-09 14:12 48.71494 3.93321 7015 ft 272 kts 332°
2026-05-09 14:13 48.73136 3.91951 6959 ft 268 kts 329°
2026-05-09 14:14 48.84852 3.82784 6506 ft 276 kts 319°
2026-05-09 14:15 48.86189 3.80726 6451 ft 271 kts 312°
2026-05-09 14:15 48.87248 3.78396 6292 ft 266 kts 295°
2026-05-09 14:15 48.88038 3.75869 6215 ft 265 kts 296°
2026-05-09 14:15 48.88882 3.73378 6137 ft 265 kts 297°
2026-05-09 14:16 48.89731 3.70887 6064 ft 267 kts 297°
2026-05-09 14:16 48.90608 3.68321 6000 ft 277 kts 297°
2026-05-09 14:16 48.91502 3.65724 5918 ft 277 kts 297°
2026-05-09 14:16 48.92394 3.63151 5825 ft 273 kts 297°
2026-05-09 14:17 48.93275 3.60618 5748 ft 270 kts 298°
2026-05-09 14:17 48.94152 3.58106 5677 ft 268 kts 297°
2026-05-09 14:17 48.95020 3.55592 5611 ft 269 kts 297°
2026-05-09 14:17 48.95887 3.53074 5551 ft 268 kts 297°
2026-05-09 14:18 48.96756 3.50558 5473 ft 269 kts 298°
2026-05-09 14:18 48.97634 3.48039 5409 ft 271 kts 298°
2026-05-09 14:18 48.98517 3.45491 5336 ft 273 kts 298°
2026-05-09 14:18 48.99400 3.42927 5244 ft 274 kts 298°
2026-05-09 14:19 49.00288 3.40356 5189 ft 275 kts 298°
2026-05-09 14:19 49.01174 3.37784 5095 ft 273 kts 298°
2026-05-09 14:19 49.02051 3.35238 5002 ft 269 kts 298°
2026-05-09 14:19 49.02918 3.32725 4952 ft 267 kts 298°
2026-05-09 14:20 49.03783 3.30213 4868 ft 268 kts 298°
2026-05-09 14:20 49.04646 3.27705 4818 ft 267 kts 298°
2026-05-09 14:20 49.05510 3.25189 4741 ft 268 kts 298°
2026-05-09 14:21 49.07240 3.20150 4585 ft 268 kts 298°
2026-05-09 14:21 49.08102 3.17635 4516 ft 267 kts 298°
2026-05-09 14:21 49.08962 3.15122 4451 ft 266 kts 298°
2026-05-09 14:21 49.09820 3.12610 4366 ft 268 kts 298°
2026-05-09 14:22 49.10680 3.10090 4298 ft 268 kts 298°
2026-05-09 14:22 49.11540 3.07571 4232 ft 267 kts 298°
2026-05-09 14:22 49.12398 3.05053 4172 ft 268 kts 298°
2026-05-09 14:22 49.13256 3.02518 4084 ft 268 kts 298°
2026-05-09 14:23 49.14105 3.00024 3998 ft 268 kts 298°
2026-05-09 14:23 49.14975 2.97466 3949 ft 268 kts 298°
2026-05-09 14:23 49.15836 2.94937 3867 ft 269 kts 298°
2026-05-09 14:23 49.16693 2.92405 3790 ft 268 kts 298°
2026-05-09 14:24 49.17539 2.89921 3725 ft 268 kts 298°
2026-05-09 14:24 49.18400 2.87364 3628 ft 266 kts 298°
2026-05-09 14:24 49.19233 2.84908 3565 ft 263 kts 298°
2026-05-09 14:24 49.20070 2.82428 3509 ft 263 kts 298°
2026-05-09 14:25 49.20914 2.79940 3437 ft 263 kts 298°
2026-05-09 14:25 49.21753 2.77447 3364 ft 263 kts 298°
2026-05-09 14:25 49.22590 2.74961 3294 ft 262 kts 298°
2026-05-09 14:25 49.23423 2.72485 3207 ft 261 kts 298°
2026-05-09 14:26 49.24254 2.70016 3151 ft 262 kts 298°
2026-05-09 14:26 49.25086 2.67537 3086 ft 262 kts 298°
2026-05-09 14:26 49.25919 2.65056 3014 ft 262 kts 298°
2026-05-09 14:26 49.26750 2.62574 2919 ft 262 kts 298°
2026-05-09 14:27 49.27583 2.60093 2876 ft 262 kts 298°
2026-05-09 14:27 49.28412 2.57611 2797 ft 262 kts 298°
2026-05-09 14:27 49.29241 2.55131 2739 ft 261 kts 298°
2026-05-09 14:27 49.30068 2.52652 2660 ft 261 kts 298°
2026-05-09 14:28 49.30895 2.50175 2595 ft 260 kts 298°
2026-05-09 14:28 49.31709 2.47709 2537 ft 260 kts 297°
2026-05-09 14:28 49.32530 2.45235 2440 ft 260 kts 298°
2026-05-09 14:28 49.33347 2.42795 2343 ft 254 kts 298°
2026-05-09 14:29 49.34145 2.40417 2289 ft 247 kts 297°
2026-05-09 14:29 49.34912 2.38105 2195 ft 239 kts 298°
2026-05-09 14:29 49.35651 2.35874 2189 ft 229 kts 297°
2026-05-09 14:29 49.36357 2.33744 2098 ft 218 kts 298°
2026-05-09 14:30 49.37026 2.31719 2025 ft 207 kts 298°
2026-05-09 14:30 49.37656 2.29814 1961 ft 194 kts 297°
2026-05-09 14:30 49.38261 2.28018 1820 ft 185 kts 301°
2026-05-09 14:30 49.38922 2.26370 1810 ft 178 kts 305°
2026-05-09 14:31 49.39588 2.24815 1816 ft 170 kts 305°
2026-05-09 14:31 49.40241 2.23305 1789 ft 170 kts 306°
2026-05-09 14:31 49.40890 2.21799 1621 ft 166 kts 306°
2026-05-09 14:31 49.41510 2.20368 1442 ft 158 kts 306°
2026-05-09 14:32 49.42117 2.18965 1200 ft 155 kts 306°
2026-05-09 14:32 49.42708 2.17593 994 ft 151 kts 307°
2026-05-09 14:32 49.43273 2.16288 791 ft 147 kts 308°
2026-05-09 14:32 49.43844 2.14969 623 ft 148 kts 308°
2026-05-09 14:33 49.44418 2.13641 414 ft 149 kts 306°
2026-05-09 14:33 49.44960 2.12372 355 ft 127 kts 306°
2026-05-09 14:33 49.45336 2.11520 355 ft 73 kts 306°
2026-05-09 14:33 49.45518 2.11099 359 ft 41 kts 303°
2026-05-09 14:34 49.45611 2.10888 355 ft 13 kts 315°
2026-05-09 14:34 49.45680 2.10888 357 ft 10 kts 26°
2026-05-09 14:34 49.45740 2.10938 356 ft 11 kts 25°
2026-05-09 14:34 49.45791 2.11018 352 ft 10 kts 96°
2026-05-09 14:35 49.45755 2.11112 355 ft 10 kts 123°
2026-05-09 14:35 49.45716 2.11200 353 ft 10 kts 123°
2026-05-09 14:35 49.45705 2.11295 356 ft 10 kts 61°
2026-05-09 14:35 49.45754 2.11364 350 ft 9 kts 41°
2026-05-09 14:36 49.45801 2.11432 350 ft 9 kts 44°
2026-05-09 14:36 49.45834 2.11455 354 ft 6 kts 356°
2026-05-09 14:36 49.45871 2.11438 357 ft 6 kts 336°
2026-05-09 14:36 49.45896 2.11421 355 ft 2 kts 336°
2026-05-09 14:37 49.45898 2.11419 354 ft 0 kts 336°